�����͌���@�\�w���ɂ��Y���u�C�̈ړ��ʁi�\�w���j,,,,,,,,,,
�@,Time,Time int.,,Lat.,,Long.,,Direction,Speed,
Date(yyyy/mm/dd),(hh:mm),(hour),(min),(deg),(min),(deg),(min),(deg),(m/s),(knots)
2005/06/28,9:5,0,,36,47.772,137,4.176,,,
2005/06/28,9:45,0,10,36,47.808,137,4.272,58.40997447,0.211390626,0.410910503
2005/06/28,9:50,0,5,36,47.844,137,4.302,22.2910235,0.239713718,0.465966191
2005/06/28,9:55,0,5,36,47.856,137,4.338,58.51828543,0.141329394,0.274722364
2005/06/28,10:00,0,5,36,47.910,137,4.428,49.44380883,0.511363135,0.994010413
2005/06/28,10:10,0,10,36,47.922,137,4.446,328.6888386,0.017248921,0.03352922
2005/06/28,10:15,0,5,36,47.952,137,4.512,59.32064035,0.318345513,0.618814172
2005/06/28,10:20,0,5,36,47.964,137,4.542,61.52522616,0.108289682,0.210498301
2005/06/28,10:25,0,5,36,47.982,137,4.584,60.21220242,0.178275524,0.346539896
2005/06/28,10:30,0,5,36,47.994,137,4.632,75.40871104,0.166831605,0.324294696
2005/06/28,10:35,0,5,36,48.006,137,4.680,75.40794178,0.166830908,0.324293342
2005/06/28,10:40,0,5,36,48.030,137,4.740,62.31491265,0.249586132,0.485156629
2005/06/28,10:45,0,5,36,48.048,137,4.782,58.55069265,0.145436024,0.282705015
2005/06/28,10:50,0,5,36,48.078,137,4.836,50.19542064,0.229060471,0.445257935
2005/06/28,10:55,0,5,36,48.084,137,4.890,89.42293445,0.183506142,0.356707404
2005/06/28,11:00,0,5,36,48.102,137,4.938,63.74791457,0.171503306,0.333375758
2005/06/28,11:05,0,5,36,48.138,137,4.974,26.80265241,0.209382615,0.407007243
2005/06/28,11:10,0,5,36,48.144,137,5.040,89.57483041,0.242993487,0.472341551
2005/06/28,11:15,0,5,36,48.156,137,5.100,79.68288436,0.216775314,0.4213775
2005/06/28,11:20,0,5,36,48.168,137,5.148,75.40023761,0.166821872,0.324275778
2005/06/28,11:25,0,5,36,48.168,137,5.202,99.49217657,0.193772173,0.376662971
2005/06/28,11:30,0,5,36,48.180,137,5.256,77.60116142,0.195745677,0.380499157
2005/06/28,11:35,0,5,36,48.210,137,5.304,46.54649719,0.222503794,0.432512775
2005/06/28,11:40,0,5,36,48.222,137,5.346,72.2774403,0.138243971,0.268724782
2005/06/28,11:45,0,5,36,48.240,137,5.406,70.42830235,0.226370003,0.440028084


�A,Time,Time int.,,Lat.,,Long.,,Direction,Speed,
Date(yyyy/mm/dd),(hh:mm),(hour),(min),(deg),(min),(deg),(min),(deg),(m/s),(knots)
2005/06/28,12:05,0,,36,47.670,137,4.218,,,
2005/06/28,12:10,0,5,36,47.682,137,4.320,84.77184387,0.423323743,0.822875526
2005/06/28,12:15,0,5,36,47.670,137,4.380,117.1206706,0.239497755,0.465546392
2005/06/28,12:20,0,5,36,47.664,137,4.428,113.1381716,0.175477254,0.341100494
2005/06/28,12:25,0,5,36,47.652,137,4.494,112.9350248,0.272087089,0.52889499
2005/06/28,12:30,0,5,36,47.628,137,4.530,148.2321023,0.207828393,0.403986077
2005/06/28,12:35,0,5,36,47.610,137,4.572,135.1076411,0.197236327,0.383396747
2005/06/28,12:40,0,5,36,47.604,137,4.626,100.4774698,0.204803159,0.398105493
2005/06/28,12:45,0,5,36,47.598,137,4.674,101.6851638,0.183737854,0.357157815
2005/06/28,12:50,0,5,36,47.586,137,4.728,108.8087845,0.230233368,0.447537865
2005/06/28,12:55,0,5,36,47.604,137,4.806,71.83302264,0.354796949,0.689670094
2005/06/28,13:05,0,5,36,47.586,137,4.848,122.4257386,0.207311164,0.402980665
2005/06/28,13:10,0,5,36,47.574,137,4.896,112.4125189,0.194598862,0.378269925
2005/06/28,13:15,0,5,36,47.622,137,4.932,22.20383627,0.319461563,0.620983599
2005/06/28,13:20,0,5,36,47.610,137,4.986,114.2497108,0.23478368,0.456382964
2005/06/28,13:25,0,5,36,47.634,137,5.052,65.37716221,0.301144463,0.585378007
2005/06/28,13:30,0,5,36,47.646,137,5.070,34.62287802,0.062819104,0.122110569
2005/06/28,13:35,0,5,36,47.652,137,5.130,86.59182438,0.244344488,0.474967687
2005/06/28,13:40,0,5,36,47.670,137,5.190,70.05963436,0.259533056,0.504491901
2005/06/28,13:45,0,5,36,47.706,137,5.250,50.73864046,0.315218152,0.612735069
2005/06/28,13:50,0,5,36,47.700,137,5.298,113.1268616,0.175466507,0.341079603
2005/06/28,13:55,0,5,36,47.718,137,5.388,77.95677228,0.378056404,0.734882859
2005/06/28,14:00,0,5,36,47.742,137,5.424,41.30675362,0.154544632,0.300410731
2005/06/28,14:05,0,5,36,47.772,137,5.490,58.61915791,0.293758104,0.571020072
2005/06/28,14:10,0,5,36,47.772,137,5.562,96.51255323,0.282211827,0.548575907
2005/06/28,14:15,0,5,36,47.802,137,5.628,58.61717778,0.293756592,0.571017133
2005/06/28,14:20,0,5,36,47.790,137,5.688,108.041243,0.280592141,0.545427488
2005/06/28,14:25,0,5,36,47.814,137,5.766,69.24591949,0.380928834,0.740466416
2005/06/28,14:30,0,5,36,47.820,137,5.874,87.28868303,0.505438049,0.982492968
2005/06/28,14:35,0,5,36,47.838,137,5.922,64.68661644,0.229463751,0.446041848
2005/06/28,14:40,0,5,36,47.862,137,5.982,60.80476761,0.302909532,0.588809025
2005/06/28,14:45,0,5,36,47.862,137,6.066,90.04312758,0.383319613,0.745113719
2005/06/28,14:50,0,5,36,47.880,137,6.144,74.61289607,0.369411198,0.718077923
2005/06/28,14:55,0,5,36,47.904,137,6.192,56.92311297,0.247568737,0.481235126
2005/06/28,15:00,0,5,36,47.922,137,6.276,75.7501156,0.39816327,0.773967479
2005/06/28,15:05,0,5,36,47.928,137,6.330,84.19020786,0.238343661,0.463303013
2005/06/28,15:10,0,5,36,47.934,137,6.432,87.11054381,0.475711627,0.924709426
2005/06/28,15:15,0,5,36,47.940,137,6.486,84.18842577,0.238342702,0.463301148
2005/06/28,15:25,0,10,36,47.970,137,6.606,73.39185193,0.278517047,0.541393827
2005/06/28,15:30,0,5,36,47.988,137,6.654,64.67741846,0.22945695,0.446028629
2005/06/28,15:35,0,5,36,48.000,137,6.708,75.54338079,0.24488825,0.476024675
2005/06/28,15:40,0,5,36,47.988,137,6.786,103.7152301,0.366492244,0.71240393
2005/06/28,15:45,0,5,36,48.000,137,6.822,67.52193866,0.160047835,0.311108103
2005/06/28,15:50,0,5,36,48.000,137,6.894,92.26154525,0.32658985,0.634839881


�B,Time,Time int.,,Lat.,,Long.,,Direction,Speed,
Date(yyyy/mm/dd),(hh:mm),(hour),(min),(deg),(min),(deg),(min),(deg),(m/s),(knots)
2005/06/28,12:05,0,,36,47.628,137,4.236,,,
2005/06/28,12:10,0,5,36,47.604,137,4.272,152.7957039,0.205813982,0.400070375
2005/06/28,12:15,0,5,36,47.580,137,4.344,123.9064631,0.328450834,0.638457344
2005/06/28,12:20,0,5,36,47.574,137,4.404,107.3521521,0.231398978,0.449803629
2005/06/28,12:25,0,5,36,47.562,137,4.446,128.8322475,0.168912428,0.328339493
2005/06/28,12:30,0,5,36,47.550,137,4.536,105.2667015,0.391049653,0.760139715
2005/06/28,12:35,0,5,36,47.538,137,4.578,126.4208596,0.173042527,0.336367763
2005/06/28,12:40,0,5,36,47.526,137,4.650,104.3447171,0.299963514,0.583082425
2005/06/28,12:45,0,5,36,47.520,137,4.674,121.3386417,0.071336803,0.138667651
2005/06/28,12:50,0,5,36,47.502,137,4.752,108.2856135,0.354832149,0.689738519
2005/06/28,12:55,0,5,36,47.514,137,4.824,76.52217385,0.316036607,0.614326019
2005/06/28,13:00,0,5,36,47.514,137,4.872,90.0622736,0.196552138,0.382066792
2005/06/28,13:05,0,5,36,47.520,137,4.962,84.93786875,0.41475235,0.806214072
2005/06/28,13:15,0,10,36,47.520,137,5.082,90.0617331,0.239471102,0.465494583
2005/06/28,13:20,0,5,36,47.532,137,5.136,76.47014669,0.220314706,0.428257527
2005/06/28,13:25,0,5,36,47.532,137,5.196,95.26203729,0.244920461,0.476087288
2005/06/28,13:30,0,5,36,47.532,137,5.244,96.92950335,0.185742849,0.361055215
2005/06/28,13:35,0,5,36,47.532,137,5.298,95.98019885,0.215308892,0.418527004
2005/06/28,13:45,0,10,36,47.544,137,5.388,85.07846351,0.170167614,0.330779378
2005/06/28,13:50,0,5,36,47.538,137,5.430,117.6263302,0.148561106,0.288779688
2005/06/28,13:55,0,5,36,47.544,137,5.490,88.69694724,0.220992892,0.429575816
2005/06/28,14:00,0,5,36,47.568,137,5.532,48.62391178,0.175600547,0.341340157
2005/06/28,14:05,0,5,36,47.550,137,5.604,117.0241629,0.314679828,0.611688651
2005/06/28,14:10,0,5,36,47.550,137,5.664,98.23142984,0.223205396,0.43387658
2005/06/28,14:15,0,5,36,47.544,137,5.712,113.1203271,0.175469599,0.341085613
2005/06/28,14:20,0,5,36,47.574,137,5.712,349.9585122,0.174943969,0.340063871
2005/06/28,14:25,0,5,36,47.562,137,5.796,102.7050071,0.395499625,0.768789767
2005/06/28,14:30,0,5,36,47.574,137,5.838,71.01083201,0.187893591,0.365235922
2005/06/28,14:35,0,5,36,47.598,137,5.880,52.75391082,0.223254764,0.433972544
2005/06/28,14:40,0,5,36,47.592,137,5.952,96.56132417,0.325950811,0.633597688
2005/06/28,14:45,0,5,36,47.598,137,6.000,79.80993743,0.208148584,0.404608478
2005/06/28,14:50,0,5,36,47.610,137,6.048,73.57966582,0.216234181,0.420325623
2005/06/28,14:55,0,5,36,47.634,137,6.120,67.52954556,0.353288492,0.686737889
2005/06/28,15:00,0,5,36,47.640,137,6.174,84.19238411,0.238360544,0.463335831
2005/06/28,15:05,0,5,36,47.658,137,6.222,64.68419107,0.229472182,0.446058237
2005/06/28,15:10,0,5,36,47.646,137,6.288,106.3297027,0.309030179,0.600706612
2005/06/28,15:15,0,5,36,47.646,137,6.342,93.10543622,0.237460448,0.461586184
2005/06/28,15:20,0,5,36,47.658,137,6.402,77.10568876,0.273813143,0.53225017
2005/06/28,15:25,0,5,36,47.664,137,6.450,83.35753034,0.208785142,0.405845849
2005/06/28,15:30,0,5,36,47.670,137,6.492,82.25117422,0.179269765,0.348472545
2005/06/28,15:35,0,5,36,47.670,137,6.516,98.22025913,0.089276507,0.173539646
2005/06/28,15:40,0,5,36,47.688,137,6.576,69.820292,0.284383582,0.552797459
2005/06/28,15:45,0,5,36,47.682,137,6.642,99.54603439,0.300752482,0.584616056
